owner,sensor,date,latitude,longitude,vertical_datum,wind_speed,wind_to_direction,wind_speed_of_gust,qcFlag 
LUMCON,ioos:station:LUMCON:102:1,2019-05-01T00:00:00Z,29.1870,-90.6093,0.0,8.4,99.0,8.6,'11111222,11111222,11111222' 
LUMCON,ioos:station:LUMCON:102:1,2019-05-01T00:15:00Z,29.1870,-90.6093,0.0,7.7,92.0,7.8,'11111222,11111222,11111222' 
LUMCON,ioos:station:LUMCON:102:1,2019-05-01T00:30:00Z,29.1870,-90.6093,0.0,8.5,100.0,8.8,'11111222,11111222,11111222' 
LUMCON,ioos:station:LUMCON:102:1,2019-05-01T00:45:00Z,29.1870,-90.6093,0.0,8.0,96.0,8.4,'11111222,11111222,11111222' 
LUMCON,ioos:station:LUMCON:102:1,2019-05-01T01:00:00Z,29.1870,-90.6093,0.0,8.6,95.0,9.0,'11111222,11111222,11111222' 
LUMCON,ioos:station:LUMCON:102:1,2019-05-01T01:15:00Z,29.1870,-90.6093,0.0,9.0,101.0,9.3,'11111222,11111222,11111222' 
LUMCON,ioos:station:LUMCON:102:1,2019-05-01T01:30:00Z,29.1870,-90.6093,0.0,9.1,100.0,9.8,'11111222,11111222,11111222' 
LUMCON,ioos:station:LUMCON:102:1,2019-05-01T01:45:00Z,29.1870,-90.6093,0.0,8.9,101.0,10.1,'11111222,11111222,11111222' 
LUMCON,ioos:station:LUMCON:102:1,2019-05-01T02:00:00Z,29.1870,-90.6093,0.0,9.7,99.0,10.1,'11111222,11111222,11111222' 
LUMCON,ioos:station:LUMCON:102:1,2019-05-01T02:15:00Z,29.1870,-90.6093,0.0,9.6,99.0,10.1,'11111222,11111222,11111222' 
LUMCON,ioos:station:LUMCON:102:1,2019-05-01T02:30:00Z,29.1870,-90.6093,0.0,9.1,105.0,9.4,'11111222,11111222,11111222' 
LUMCON,ioos:station:LUMCON:102:1,2019-05-01T02:45:00Z,29.1870,-90.6093,0.0,7.0,105.0,7.3,'11111222,11111222,11111222' 
LUMCON,ioos:station:LUMCON:102:1,2019-05-01T03:00:00Z,29.1870,-90.6093,0.0,8.8,109.0,9.1,'11111222,11111222,11111222' 
LUMCON,ioos:station:LUMCON:102:1,2019-05-01T03:15:00Z,29.1870,-90.6093,0.0,7.9,105.0,8.2,'11111222,11111222,11111222' 
LUMCON,ioos:station:LUMCON:102:1,2019-05-01T03:30:00Z,29.1870,-90.6093,0.0,8.3,102.0,9.0,'11111222,11111222,11111222' 
LUMCON,ioos:station:LUMCON:102:1,2019-05-01T03:45:00Z,29.1870,-90.6093,0.0,8.6,107.0,9.2,'11111222,11111222,11111222' 
LUMCON,ioos:station:LUMCON:102:1,2019-05-01T04:00:00Z,29.1870,-90.6093,0.0,10.0,107.0,10.3,'11111222,11111222,11111222' 
LUMCON,ioos:station:LUMCON:102:1,2019-05-01T04:15:00Z,29.1870,-90.6093,0.0,10.3,108.0,10.9,'11111222,11111222,11111222' 
LUMCON,ioos:station:LUMCON:102:1,2019-05-01T04:30:00Z,29.1870,-90.6093,0.0,8.3,107.0,9.0,'11111222,11111222,11111222' 
LUMCON,ioos:station:LUMCON:102:1,2019-05-01T04:45:00Z,29.1870,-90.6093,0.0,9.9,108.0,10.5,'11111222,11111222,11111222' 
LUMCON,ioos:station:LUMCON:102:1,2019-05-01T05:00:00Z,29.1870,-90.6093,0.0,8.9,110.0,9.8,'11111222,11111222,11111222' 
LUMCON,ioos:station:LUMCON:102:1,2019-05-01T05:15:00Z,29.1870,-90.6093,0.0,9.9,110.0,10.5,'11111222,11111222,11111222' 
LUMCON,ioos:station:LUMCON:102:1,2019-05-01T05:30:00Z,29.1870,-90.6093,0.0,8.6,110.0,9.2,'11111222,11111222,11111222' 
LUMCON,ioos:station:LUMCON:102:1,2019-05-01T05:45:00Z,29.1870,-90.6093,0.0,9.8,117.0,10.2,'11111222,11111222,11111222' 
LUMCON,ioos:station:LUMCON:102:1,2019-05-01T06:00:00Z,29.1870,-90.6093,0.0,9.2,116.0,9.5,'11111222,11111222,11111222' 
LUMCON,ioos:station:LUMCON:102:1,2019-05-01T06:15:00Z,29.1870,-90.6093,0.0,10.0,118.0,10.3,'11111222,11111222,11111222' 
LUMCON,ioos:station:LUMCON:102:1,2019-05-01T06:30:00Z,29.1870,-90.6093,0.0,7.9,120.0,8.0,'11111222,11111222,11111222' 
LUMCON,ioos:station:LUMCON:102:1,2019-05-01T06:45:00Z,29.1870,-90.6093,0.0,9.1,114.0,9.2,'11111222,11111222,11111222' 
LUMCON,ioos:station:LUMCON:102:1,2019-05-01T07:00:00Z,29.1870,-90.6093,0.0,7.2,115.0,7.5,'11111222,11111222,11111222' 
LUMCON,ioos:station:LUMCON:102:1,2019-05-01T07:15:00Z,29.1870,-90.6093,0.0,7.5,112.0,7.8,'11111222,11111222,11111222' 
LUMCON,ioos:station:LUMCON:102:1,2019-05-01T07:30:00Z,29.1870,-90.6093,0.0,9.5,113.0,9.9,'11111222,11111222,11111222' 
LUMCON,ioos:station:LUMCON:102:1,2019-05-01T07:45:00Z,29.1870,-90.6093,0.0,8.8,108.0,9.3,'11111222,11111222,11111222' 
LUMCON,ioos:station:LUMCON:102:1,2019-05-01T08:00:00Z,29.1870,-90.6093,0.0,8.5,114.0,8.9,'11111222,11111222,11111222' 
LUMCON,ioos:station:LUMCON:102:1,2019-05-01T08:15:00Z,29.1870,-90.6093,0.0,8.6,120.0,9.4,'11111222,11111222,11111222' 
LUMCON,ioos:station:LUMCON:102:1,2019-05-01T08:30:00Z,29.1870,-90.6093,0.0,9.1,129.0,9.3,'11111222,11111222,11111222' 
LUMCON,ioos:station:LUMCON:102:1,2019-05-01T08:45:00Z,29.1870,-90.6093,0.0,7.7,130.0,8.1,'11111222,11111222,11111222' 
LUMCON,ioos:station:LUMCON:102:1,2019-05-01T09:00:00Z,29.1870,-90.6093,0.0,6.8,127.0,7.1,'11111222,11111222,11111222' 
LUMCON,ioos:station:LUMCON:102:1,2019-05-01T09:15:00Z,29.1870,-90.6093,0.0,5.9,121.0,6.4,'11111222,11111222,11111222' 
LUMCON,ioos:station:LUMCON:102:1,2019-05-01T09:30:00Z,29.1870,-90.6093,0.0,6.6,127.0,6.8,'11111222,11111222,11111222' 
LUMCON,ioos:station:LUMCON:102:1,2019-05-01T09:45:00Z,29.1870,-90.6093,0.0,6.6,130.0,6.7,'11111222,11111222,11111222' 
LUMCON,ioos:station:LUMCON:102:1,2019-05-01T10:00:00Z,29.1870,-90.6093,0.0,7.1,133.0,7.3,'11111222,11111222,11111222' 
LUMCON,ioos:station:LUMCON:102:1,2019-05-01T10:15:00Z,29.1870,-90.6093,0.0,7.0,130.0,7.1,'11111222,11111222,11111222' 
LUMCON,ioos:station:LUMCON:102:1,2019-05-01T10:30:00Z,29.1870,-90.6093,0.0,6.1,129.0,6.2,'11111222,11111222,11111222' 
LUMCON,ioos:station:LUMCON:102:1,2019-05-01T10:45:00Z,29.1870,-90.6093,0.0,6.7,123.0,6.8,'11111222,11111222,11111222' 
LUMCON,ioos:station:LUMCON:102:1,2019-05-01T11:00:00Z,29.1870,-90.6093,0.0,7.2,121.0,7.4,'11111222,11111222,11111222' 
LUMCON,ioos:station:LUMCON:102:1,2019-05-01T11:15:00Z,29.1870,-90.6093,0.0,5.8,120.0,5.9,'11111222,11111222,11111222' 
LUMCON,ioos:station:LUMCON:102:1,2019-05-01T11:30:00Z,29.1870,-90.6093,0.0,5.8,120.0,6.2,'11111222,11111222,11111222' 
LUMCON,ioos:station:LUMCON:102:1,2019-05-01T11:45:00Z,29.1870,-90.6093,0.0,5.7,108.0,5.9,'11111222,11111222,11111222' 
LUMCON,ioos:station:LUMCON:102:1,2019-05-01T12:00:00Z,29.1870,-90.6093,0.0,5.6,107.0,5.7,'11111222,11111222,11111222' 
LUMCON,ioos:station:LUMCON:102:1,2019-05-01T12:15:00Z,29.1870,-90.6093,0.0,6.4,114.0,6.7,'11111222,11111222,11111222' 
LUMCON,ioos:station:LUMCON:102:1,2019-05-01T12:30:00Z,29.1870,-90.6093,0.0,6.7,102.0,6.8,'11111222,11111222,11111222' 
LUMCON,ioos:station:LUMCON:102:1,2019-05-01T12:45:00Z,29.1870,-90.6093,0.0,6.0,102.0,6.1,'11111222,11111222,11111222' 
LUMCON,ioos:station:LUMCON:102:1,2019-05-01T13:00:00Z,29.1870,-90.6093,0.0,5.4,104.0,6.0,'11111222,11111222,11111222' 
LUMCON,ioos:station:LUMCON:102:1,2019-05-01T13:15:00Z,29.1870,-90.6093,0.0,5.5,102.0,5.6,'11111222,11111222,11111222' 
LUMCON,ioos:station:LUMCON:102:1,2019-05-01T13:30:00Z,29.1870,-90.6093,0.0,6.6,106.0,6.8,'11111222,11111222,11111222' 
LUMCON,ioos:station:LUMCON:102:1,2019-05-01T13:45:00Z,29.1870,-90.6093,0.0,6.2,100.0,6.4,'11111222,11111222,11111222' 
LUMCON,ioos:station:LUMCON:102:1,2019-05-01T14:00:00Z,29.1870,-90.6093,0.0,6.6,105.0,6.9,'11111222,11111222,11111222' 
LUMCON,ioos:station:LUMCON:102:1,2019-05-01T14:15:00Z,29.1870,-90.6093,0.0,6.9,93.0,7.3,'11111222,11111222,11111222' 
LUMCON,ioos:station:LUMCON:102:1,2019-05-01T14:30:00Z,29.1870,-90.6093,0.0,7.5,104.0,7.9,'11111222,11111222,11111222' 
LUMCON,ioos:station:LUMCON:102:1,2019-05-01T14:45:00Z,29.1870,-90.6093,0.0,8.4,99.0,8.6,'11111222,11111222,11111222' 
LUMCON,ioos:station:LUMCON:102:1,2019-05-01T15:00:00Z,29.1870,-90.6093,0.0,9.5,97.0,9.7,'11111222,11111222,11111222' 
LUMCON,ioos:station:LUMCON:102:1,2019-05-01T15:15:00Z,29.1870,-90.6093,0.0,9.4,96.0,9.9,'11111222,11111222,11111222' 
LUMCON,ioos:station:LUMCON:102:1,2019-05-01T15:30:00Z,29.1870,-90.6093,0.0,7.1,95.0,7.5,'11111222,11111222,11111222' 
LUMCON,ioos:station:LUMCON:102:1,2019-05-01T15:45:00Z,29.1870,-90.6093,0.0,6.9,98.0,7.3,'11111222,11111222,11111222' 
LUMCON,ioos:station:LUMCON:102:1,2019-05-01T16:00:00Z,29.1870,-90.6093,0.0,7.4,100.0,8.1,'11111222,11111222,11111222' 
LUMCON,ioos:station:LUMCON:102:1,2019-05-01T16:15:00Z,29.1870,-90.6093,0.0,8.5,93.0,8.6,'11111222,11111222,11111222' 
LUMCON,ioos:station:LUMCON:102:1,2019-05-01T16:30:00Z,29.1870,-90.6093,0.0,7.7,97.0,7.8,'11111222,11111222,11111222' 
LUMCON,ioos:station:LUMCON:102:1,2019-05-01T16:45:00Z,29.1870,-90.6093,0.0,8.1,92.0,8.4,'11111222,11111222,11111222' 
LUMCON,ioos:station:LUMCON:102:1,2019-05-01T17:00:00Z,29.1870,-90.6093,0.0,7.9,105.0,8.6,'11111222,11111222,11111222' 
LUMCON,ioos:station:LUMCON:102:1,2019-05-01T17:15:00Z,29.1870,-90.6093,0.0,7.6,93.0,7.9,'11111222,11111222,11111222' 
LUMCON,ioos:station:LUMCON:102:1,2019-05-01T17:30:00Z,29.1870,-90.6093,0.0,6.4,105.0,6.7,'11111222,11111222,11111222' 
LUMCON,ioos:station:LUMCON:102:1,2019-05-01T17:45:00Z,29.1870,-90.6093,0.0,8.1,105.0,8.2,'11111222,11111222,11111222' 
LUMCON,ioos:station:LUMCON:102:1,2019-05-01T18:00:00Z,29.1870,-90.6093,0.0,8.4,102.0,8.5,'11111222,11111222,11111222' 
LUMCON,ioos:station:LUMCON:102:1,2019-05-01T18:15:00Z,29.1870,-90.6093,0.0,7.8,104.0,8.1,'11111222,11111222,11111222' 
LUMCON,ioos:station:LUMCON:102:1,2019-05-01T18:30:00Z,29.1870,-90.6093,0.0,8.1,102.0,8.4,'11111222,11111222,11111222' 
LUMCON,ioos:station:LUMCON:102:1,2019-05-01T18:45:00Z,29.1870,-90.6093,0.0,7.2,105.0,7.7,'11111222,11111222,11111222' 
LUMCON,ioos:station:LUMCON:102:1,2019-05-01T19:00:00Z,29.1870,-90.6093,0.0,6.4,99.0,6.6,'11111222,11111222,11111222' 
LUMCON,ioos:station:LUMCON:102:1,2019-05-01T19:15:00Z,29.1870,-90.6093,0.0,7.6,101.0,7.8,'11111222,11111222,11111222' 
LUMCON,ioos:station:LUMCON:102:1,2019-05-01T19:30:00Z,29.1870,-90.6093,0.0,6.9,98.0,7.6,'11111222,11111222,11111222' 
LUMCON,ioos:station:LUMCON:102:1,2019-05-01T19:45:00Z,29.1870,-90.6093,0.0,7.4,92.0,7.7,'11111222,11111222,11111222' 
LUMCON,ioos:station:LUMCON:102:1,2019-05-01T20:00:00Z,29.1870,-90.6093,0.0,6.7,99.0,7.2,'11111222,11111222,11111222' 
LUMCON,ioos:station:LUMCON:102:1,2019-05-01T20:15:00Z,29.1870,-90.6093,0.0,6.2,92.0,6.6,'11111222,11111222,11111222' 
LUMCON,ioos:station:LUMCON:102:1,2019-05-01T20:30:00Z,29.1870,-90.6093,0.0,7.3,90.0,7.4,'11111222,11111222,11111222' 
LUMCON,ioos:station:LUMCON:102:1,2019-05-01T20:45:00Z,29.1870,-90.6093,0.0,7.8,93.0,8.1,'11111222,11111222,11111222' 
LUMCON,ioos:station:LUMCON:102:1,2019-05-01T21:00:00Z,29.1870,-90.6093,0.0,6.8,87.0,7.0,'11111222,11111222,11111222' 
LUMCON,ioos:station:LUMCON:102:1,2019-05-01T21:15:00Z,29.1870,-90.6093,0.0,7.8,88.0,8.2,'11111222,11111222,11111222' 
LUMCON,ioos:station:LUMCON:102:1,2019-05-01T21:30:00Z,29.1870,-90.6093,0.0,8.4,84.0,8.6,'11111222,11111222,11111222' 
LUMCON,ioos:station:LUMCON:102:1,2019-05-01T21:45:00Z,29.1870,-90.6093,0.0,7.8,87.0,8.2,'11111222,11111222,11111222' 
LUMCON,ioos:station:LUMCON:102:1,2019-05-01T22:00:00Z,29.1870,-90.6093,0.0,8.1,89.0,8.4,'11111222,11111222,11111222' 
LUMCON,ioos:station:LUMCON:102:1,2019-05-01T22:15:00Z,29.1870,-90.6093,0.0,8.1,90.0,8.4,'11111222,11111222,11111222' 
LUMCON,ioos:station:LUMCON:102:1,2019-05-01T22:30:00Z,29.1870,-90.6093,0.0,7.5,91.0,7.8,'11111222,11111222,11111222' 
LUMCON,ioos:station:LUMCON:102:1,2019-05-01T22:45:00Z,29.1870,-90.6093,0.0,7.8,88.0,8.2,'11111222,11111222,11111222' 
LUMCON,ioos:station:LUMCON:102:1,2019-05-01T23:00:00Z,29.1870,-90.6093,0.0,9.2,93.0,9.3,'11111222,11111222,11111222' 
LUMCON,ioos:station:LUMCON:102:1,2019-05-01T23:15:00Z,29.1870,-90.6093,0.0,9.4,93.0,9.8,'11111222,11111222,11111222' 
LUMCON,ioos:station:LUMCON:102:1,2019-05-01T23:30:00Z,29.1870,-90.6093,0.0,9.9,89.0,10.4,'11111222,11111222,11111222' 
LUMCON,ioos:station:LUMCON:102:1,2019-05-01T23:45:00Z,29.1870,-90.6093,0.0,8.1,84.0,9.2,'11111222,11111222,11111222' 
LUMCON,ioos:station:LUMCON:102:1,2019-05-02T00:00:00Z,29.1870,-90.6093,0.0,8.1,98.0,8.4,'11111222,11111222,11111222' 
LUMCON,ioos:station:LUMCON:102:1,2019-05-02T00:15:00Z,29.1870,-90.6093,0.0,9.4,92.0,9.6,'11111222,11111222,11111222' 
LUMCON,ioos:station:LUMCON:102:1,2019-05-02T00:30:00Z,29.1870,-90.6093,0.0,9.7,94.0,10.2,'11111222,11111222,11111222' 
LUMCON,ioos:station:LUMCON:102:1,2019-05-02T00:45:00Z,29.1870,-90.6093,0.0,8.8,90.0,9.3,'11111222,11111222,11111222' 
LUMCON,ioos:station:LUMCON:102:1,2019-05-02T01:00:00Z,29.1870,-90.6093,0.0,9.3,102.0,9.5,'11111222,11111222,11111222' 
LUMCON,ioos:station:LUMCON:102:1,2019-05-02T01:15:00Z,29.1870,-90.6093,0.0,9.0,96.0,9.2,'11111222,11111222,11111222' 
LUMCON,ioos:station:LUMCON:102:1,2019-05-02T01:30:00Z,29.1870,-90.6093,0.0,9.2,100.0,9.6,'11111222,11111222,11111222' 
LUMCON,ioos:station:LUMCON:102:1,2019-05-02T01:45:00Z,29.1870,-90.6093,0.0,7.3,99.0,7.7,'11111222,11111222,11111222' 
LUMCON,ioos:station:LUMCON:102:1,2019-05-02T02:00:00Z,29.1870,-90.6093,0.0,8.4,99.0,8.5,'11111222,11111222,11111222' 
LUMCON,ioos:station:LUMCON:102:1,2019-05-02T02:15:00Z,29.1870,-90.6093,0.0,9.4,101.0,9.8,'11111222,11111222,11111222' 
LUMCON,ioos:station:LUMCON:102:1,2019-05-02T02:30:00Z,29.1870,-90.6093,0.0,10.4,103.0,10.6,'11111222,11111222,11111222' 
LUMCON,ioos:station:LUMCON:102:1,2019-05-02T02:45:00Z,29.1870,-90.6093,0.0,8.0,102.0,8.7,'11111222,11111222,11111222' 
LUMCON,ioos:station:LUMCON:102:1,2019-05-02T03:00:00Z,29.1870,-90.6093,0.0,9.4,113.0,9.5,'11111222,11111222,11111222' 
LUMCON,ioos:station:LUMCON:102:1,2019-05-02T03:15:00Z,29.1870,-90.6093,0.0,9.9,108.0,10.4,'11111222,11111222,11111222' 
LUMCON,ioos:station:LUMCON:102:1,2019-05-02T03:30:00Z,29.1870,-90.6093,0.0,9.0,105.0,9.4,'11111222,11111222,11111222' 
LUMCON,ioos:station:LUMCON:102:1,2019-05-02T03:45:00Z,29.1870,-90.6093,0.0,10.2,116.0,10.9,'11111222,11111222,11111222' 
LUMCON,ioos:station:LUMCON:102:1,2019-05-02T04:00:00Z,29.1870,-90.6093,0.0,10.7,105.0,10.9,'11111222,11111222,11111222' 
LUMCON,ioos:station:LUMCON:102:1,2019-05-02T04:15:00Z,29.1870,-90.6093,0.0,10.2,109.0,11.3,'11111222,11111222,11111222' 
LUMCON,ioos:station:LUMCON:102:1,2019-05-02T04:30:00Z,29.1870,-90.6093,0.0,9.4,103.0,10.1,'11111222,11111222,11111222' 
LUMCON,ioos:station:LUMCON:102:1,2019-05-02T04:45:00Z,29.1870,-90.6093,0.0,9.7,108.0,9.9,'11111222,11111222,11111222' 
LUMCON,ioos:station:LUMCON:102:1,2019-05-02T05:00:00Z,29.1870,-90.6093,0.0,9.7,107.0,9.9,'11111222,11111222,11111222' 
LUMCON,ioos:station:LUMCON:102:1,2019-05-02T05:15:00Z,29.1870,-90.6093,0.0,9.0,101.0,9.2,'11111222,11111222,11111222' 
LUMCON,ioos:station:LUMCON:102:1,2019-05-02T05:30:00Z,29.1870,-90.6093,0.0,8.2,109.0,8.6,'11111222,11111222,11111222' 
LUMCON,ioos:station:LUMCON:102:1,2019-05-02T05:45:00Z,29.1870,-90.6093,0.0,8.3,110.0,8.9,'11111222,11111222,11111222' 
LUMCON,ioos:station:LUMCON:102:1,2019-05-02T06:00:00Z,29.1870,-90.6093,0.0,9.6,108.0,10.0,'11111222,11111222,11111222' 
LUMCON,ioos:station:LUMCON:102:1,2019-05-02T06:15:00Z,29.1870,-90.6093,0.0,9.6,112.0,10.0,'11111222,11111222,11111222' 
LUMCON,ioos:station:LUMCON:102:1,2019-05-02T06:30:00Z,29.1870,-90.6093,0.0,9.1,106.0,9.5,'11111222,11111222,11111222' 
LUMCON,ioos:station:LUMCON:102:1,2019-05-02T06:45:00Z,29.1870,-90.6093,0.0,8.2,101.0,8.5,'11111222,11111222,11111222' 
LUMCON,ioos:station:LUMCON:102:1,2019-05-02T07:00:00Z,29.1870,-90.6093,0.0,7.1,108.0,7.5,'11111222,11111222,11111222' 
LUMCON,ioos:station:LUMCON:102:1,2019-05-02T07:15:00Z,29.1870,-90.6093,0.0,8.2,109.0,8.4,'11111222,11111222,11111222' 
LUMCON,ioos:station:LUMCON:102:1,2019-05-02T07:30:00Z,29.1870,-90.6093,0.0,8.4,105.0,8.6,'11111222,11111222,11111222' 
LUMCON,ioos:station:LUMCON:102:1,2019-05-02T07:45:00Z,29.1870,-90.6093,0.0,7.0,109.0,7.7,'11111222,11111222,11111222' 
LUMCON,ioos:station:LUMCON:102:1,2019-05-02T08:00:00Z,29.1870,-90.6093,0.0,7.5,117.0,7.8,'11111222,11111222,11111222' 
LUMCON,ioos:station:LUMCON:102:1,2019-05-02T08:15:00Z,29.1870,-90.6093,0.0,6.9,110.0,7.0,'11111222,11111222,11111222' 
LUMCON,ioos:station:LUMCON:102:1,2019-05-02T08:30:00Z,29.1870,-90.6093,0.0,6.6,114.0,6.8,'11111222,11111222,11111222' 
LUMCON,ioos:station:LUMCON:102:1,2019-05-02T08:45:00Z,29.1870,-90.6093,0.0,7.3,118.0,7.8,'11111222,11111222,11111222' 
LUMCON,ioos:station:LUMCON:102:1,2019-05-02T09:00:00Z,29.1870,-90.6093,0.0,6.9,115.0,7.0,'11111222,11111222,11111222' 
LUMCON,ioos:station:LUMCON:102:1,2019-05-02T09:15:00Z,29.1870,-90.6093,0.0,7.3,114.0,7.3,'11111222,11111222,11111222' 
LUMCON,ioos:station:LUMCON:102:1,2019-05-02T09:30:00Z,29.1870,-90.6093,0.0,6.8,113.0,7.0,'11111222,11111222,11111222' 
LUMCON,ioos:station:LUMCON:102:1,2019-05-02T09:45:00Z,29.1870,-90.6093,0.0,6.9,115.0,7.1,'11111222,11111222,11111222' 
LUMCON,ioos:station:LUMCON:102:1,2019-05-02T10:00:00Z,29.1870,-90.6093,0.0,5.4,105.0,5.9,'11111222,11111222,11111222' 
LUMCON,ioos:station:LUMCON:102:1,2019-05-02T10:15:00Z,29.1870,-90.6093,0.0,6.5,113.0,6.8,'11111222,11111222,11111222' 
LUMCON,ioos:station:LUMCON:102:1,2019-05-02T10:30:00Z,29.1870,-90.6093,0.0,8.4,112.0,8.8,'11111222,11111222,11111222' 
LUMCON,ioos:station:LUMCON:102:1,2019-05-02T10:45:00Z,29.1870,-90.6093,0.0,8.9,106.0,9.5,'11111222,11111222,11111222' 
LUMCON,ioos:station:LUMCON:102:1,2019-05-02T11:00:00Z,29.1870,-90.6093,0.0,8.7,109.0,9.5,'11111222,11111222,11111222' 
LUMCON,ioos:station:LUMCON:102:1,2019-05-02T11:15:00Z,29.1870,-90.6093,0.0,9.5,107.0,10.5,'11111222,11111222,11111222' 
LUMCON,ioos:station:LUMCON:102:1,2019-05-02T11:30:00Z,29.1870,-90.6093,0.0,10.2,104.0,10.4,'11111222,11111222,11111222' 
LUMCON,ioos:station:LUMCON:102:1,2019-05-02T11:45:00Z,29.1870,-90.6093,0.0,9.6,112.0,9.8,'11111222,11111222,11111222' 
LUMCON,ioos:station:LUMCON:102:1,2019-05-02T12:00:00Z,29.1870,-90.6093,0.0,8.6,112.0,8.8,'11111222,11111222,11111222' 
LUMCON,ioos:station:LUMCON:102:1,2019-05-02T12:15:00Z,29.1870,-90.6093,0.0,9.4,104.0,9.5,'11111222,11111222,11111222' 
LUMCON,ioos:station:LUMCON:102:1,2019-05-02T12:30:00Z,29.1870,-90.6093,0.0,7.9,107.0,8.2,'11111222,11111222,11111222' 
LUMCON,ioos:station:LUMCON:102:1,2019-05-02T12:45:00Z,29.1870,-90.6093,0.0,7.2,110.0,7.4,'11111222,11111222,11111222' 
LUMCON,ioos:station:LUMCON:102:1,2019-05-02T13:00:00Z,29.1870,-90.6093,0.0,7.3,102.0,7.5,'11111222,11111222,11111222' 
LUMCON,ioos:station:LUMCON:102:1,2019-05-02T13:15:00Z,29.1870,-90.6093,0.0,6.7,106.0,7.0,'11111222,11111222,11111222' 
LUMCON,ioos:station:LUMCON:102:1,2019-05-02T13:30:00Z,29.1870,-90.6093,0.0,6.9,97.0,7.1,'11111222,11111222,11111222' 
LUMCON,ioos:station:LUMCON:102:1,2019-05-02T13:45:00Z,29.1870,-90.6093,0.0,6.4,98.0,6.5,'11111222,11111222,11111222' 
LUMCON,ioos:station:LUMCON:102:1,2019-05-02T14:00:00Z,29.1870,-90.6093,0.0,6.6,91.0,6.8,'11111222,11111222,11111222' 
LUMCON,ioos:station:LUMCON:102:1,2019-05-02T14:15:00Z,29.1870,-90.6093,0.0,6.6,94.0,7.3,'11111222,11111222,11111222' 
LUMCON,ioos:station:LUMCON:102:1,2019-05-02T14:30:00Z,29.1870,-90.6093,0.0,6.8,95.0,7.1,'11111222,11111222,11111222' 
LUMCON,ioos:station:LUMCON:102:1,2019-05-02T14:45:00Z,29.1870,-90.6093,0.0,6.6,95.0,6.7,'11111222,11111222,11111222' 
LUMCON,ioos:station:LUMCON:102:1,2019-05-02T15:00:00Z,29.1870,-90.6093,0.0,6.2,87.0,6.7,'11111222,11111222,11111222' 
LUMCON,ioos:station:LUMCON:102:1,2019-05-02T15:15:00Z,29.1870,-90.6093,0.0,7.5,85.0,7.7,'11111222,11111222,11111222' 
LUMCON,ioos:station:LUMCON:102:1,2019-05-02T15:30:00Z,29.1870,-90.6093,0.0,5.8,86.0,6.5,'11111222,11111222,11111222' 
LUMCON,ioos:station:LUMCON:102:1,2019-05-02T15:45:00Z,29.1870,-90.6093,0.0,5.1,80.0,5.2,'11111222,11111222,11111222' 
LUMCON,ioos:station:LUMCON:102:1,2019-05-02T16:00:00Z,29.1870,-90.6093,0.0,4.6,70.0,4.7,'11111222,11111222,11111222' 
LUMCON,ioos:station:LUMCON:102:1,2019-05-02T16:15:00Z,29.1870,-90.6093,0.0,3.3,53.0,3.5,'11111222,11111222,11111222' 
LUMCON,ioos:station:LUMCON:102:1,2019-05-02T16:30:00Z,29.1870,-90.6093,0.0,3.8,47.0,3.9,'11111222,11111222,11111222' 
LUMCON,ioos:station:LUMCON:102:1,2019-05-02T16:45:00Z,29.1870,-90.6093,0.0,3.9,48.0,4.0,'11111222,11111222,11111222' 
LUMCON,ioos:station:LUMCON:102:1,2019-05-02T17:00:00Z,29.1870,-90.6093,0.0,4.2,59.0,4.4,'11111222,11111222,11111222' 
LUMCON,ioos:station:LUMCON:102:1,2019-05-02T17:15:00Z,29.1870,-90.6093,0.0,3.6,66.0,3.7,'11111222,11111222,11111222' 
LUMCON,ioos:station:LUMCON:102:1,2019-05-02T17:30:00Z,29.1870,-90.6093,0.0,3.2,44.0,3.3,'11111222,11111222,11111222' 
LUMCON,ioos:station:LUMCON:102:1,2019-05-02T17:45:00Z,29.1870,-90.6093,0.0,4.3,48.0,4.5,'11111222,11111222,11111222' 
LUMCON,ioos:station:LUMCON:102:1,2019-05-02T18:00:00Z,29.1870,-90.6093,0.0,3.3,30.0,3.4,'11111222,11111222,11111222' 
LUMCON,ioos:station:LUMCON:102:1,2019-05-02T18:15:00Z,29.1870,-90.6093,0.0,3.4,70.0,3.6,'11111222,11111222,11111222' 
LUMCON,ioos:station:LUMCON:102:1,2019-05-02T18:30:00Z,29.1870,-90.6093,0.0,3.8,60.0,4.1,'11111222,11111222,11111222' 
LUMCON,ioos:station:LUMCON:102:1,2019-05-02T18:45:00Z,29.1870,-90.6093,0.0,4.9,91.0,5.0,'11111222,11111222,11111222' 
LUMCON,ioos:station:LUMCON:102:1,2019-05-02T19:00:00Z,29.1870,-90.6093,0.0,4.1,85.0,4.2,'11111222,11111222,11111222' 
LUMCON,ioos:station:LUMCON:102:1,2019-05-02T19:15:00Z,29.1870,-90.6093,0.0,4.5,77.0,4.6,'11111222,11111222,11111222' 
LUMCON,ioos:station:LUMCON:102:1,2019-05-02T19:30:00Z,29.1870,-90.6093,0.0,5.5,74.0,5.9,'11111222,11111222,11111222' 
LUMCON,ioos:station:LUMCON:102:1,2019-05-02T19:45:00Z,29.1870,-90.6093,0.0,5.5,80.0,5.7,'11111222,11111222,11111222' 
LUMCON,ioos:station:LUMCON:102:1,2019-05-02T20:00:00Z,29.1870,-90.6093,0.0,5.3,89.0,5.9,'11111222,11111222,11111222' 
LUMCON,ioos:station:LUMCON:102:1,2019-05-02T20:15:00Z,29.1870,-90.6093,0.0,4.9,91.0,5.2,'11111222,11111222,11111222' 
LUMCON,ioos:station:LUMCON:102:1,2019-05-02T20:30:00Z,29.1870,-90.6093,0.0,5.7,106.0,5.8,'11111222,11111222,11111222' 
LUMCON,ioos:station:LUMCON:102:1,2019-05-02T20:45:00Z,29.1870,-90.6093,0.0,6.9,112.0,7.2,'11111222,11111222,11111222' 
LUMCON,ioos:station:LUMCON:102:1,2019-05-02T21:00:00Z,29.1870,-90.6093,0.0,7.2,119.0,7.3,'11111222,11111222,11111222' 
LUMCON,ioos:station:LUMCON:102:1,2019-05-02T21:15:00Z,29.1870,-90.6093,0.0,7.0,109.0,7.1,'11111222,11111222,11111222' 
LUMCON,ioos:station:LUMCON:102:1,2019-05-02T21:30:00Z,29.1870,-90.6093,0.0,7.9,118.0,8.0,'11111222,11111222,11111222' 
LUMCON,ioos:station:LUMCON:102:1,2019-05-02T21:45:00Z,29.1870,-90.6093,0.0,8.5,112.0,8.7,'11111222,11111222,11111222' 
LUMCON,ioos:station:LUMCON:102:1,2019-05-02T22:00:00Z,29.1870,-90.6093,0.0,7.4,110.0,7.6,'11111222,11111222,11111222' 
LUMCON,ioos:station:LUMCON:102:1,2019-05-02T22:15:00Z,29.1870,-90.6093,0.0,9.2,116.0,9.4,'11111222,11111222,11111222' 
LUMCON,ioos:station:LUMCON:102:1,2019-05-02T22:30:00Z,29.1870,-90.6093,0.0,9.2,108.0,9.7,'11111222,11111222,11111222' 
LUMCON,ioos:station:LUMCON:102:1,2019-05-02T22:45:00Z,29.1870,-90.6093,0.0,8.9,113.0,9.1,'11111222,11111222,11111222' 
LUMCON,ioos:station:LUMCON:102:1,2019-05-02T23:00:00Z,29.1870,-90.6093,0.0,8.2,105.0,8.3,'11111222,11111222,11111222' 
LUMCON,ioos:station:LUMCON:102:1,2019-05-02T23:15:00Z,29.1870,-90.6093,0.0,7.5,103.0,7.6,'11111222,11111222,11111222' 
LUMCON,ioos:station:LUMCON:102:1,2019-05-02T23:30:00Z,29.1870,-90.6093,0.0,7.6,114.0,8.0,'11111222,11111222,11111222' 
LUMCON,ioos:station:LUMCON:102:1,2019-05-02T23:45:00Z,29.1870,-90.6093,0.0,8.6,115.0,8.8,'11111222,11111222,11111222' 
LUMCON,ioos:station:LUMCON:102:1,2019-05-03T00:00:00Z,29.1870,-90.6093,0.0,7.8,115.0,7.8,'11111222,11111222,11111222' 
LUMCON,ioos:station:LUMCON:102:1,2019-05-03T00:15:00Z,29.1870,-90.6093,0.0,7.5,114.0,7.7,'11111222,11111222,11111222' 
LUMCON,ioos:station:LUMCON:102:1,2019-05-03T00:30:00Z,29.1870,-90.6093,0.0,7.3,105.0,7.6,'11111222,11111222,11111222' 
LUMCON,ioos:station:LUMCON:102:1,2019-05-03T00:45:00Z,29.1870,-90.6093,0.0,7.6,121.0,8.0,'11111222,11111222,11111222' 
LUMCON,ioos:station:LUMCON:102:1,2019-05-03T01:00:00Z,29.1870,-90.6093,0.0,7.7,113.0,7.9,'11111222,11111222,11111222' 
LUMCON,ioos:station:LUMCON:102:1,2019-05-03T01:15:00Z,29.1870,-90.6093,0.0,7.9,123.0,8.0,'11111222,11111222,11111222' 
LUMCON,ioos:station:LUMCON:102:1,2019-05-03T01:30:00Z,29.1870,-90.6093,0.0,6.6,108.0,6.8,'11111222,11111222,11111222' 
LUMCON,ioos:station:LUMCON:102:1,2019-05-03T01:45:00Z,29.1870,-90.6093,0.0,7.0,114.0,7.2,'11111222,11111222,11111222' 
LUMCON,ioos:station:LUMCON:102:1,2019-05-03T02:00:00Z,29.1870,-90.6093,0.0,7.0,113.0,7.2,'11111222,11111222,11111222' 